EHI
0 0 0 1 2 2 3 3 5 8 10 10 11 10 9 8 6 4 3 3 2 2 1 0 0 0 1 2 3 4 4 3 3 3 4 4 6 5 3 1 0 0 0
0 0 0 1 2 1 1 1 3 6 7 8 9 9 8 7 6 3 2 1 1 1 0 0 0 0 0 1 1 3 3 3 4 4 3 3 4 4 2 1 0 0 0
1 1 0 1 1 0 0 0 1 2 3 3 4 5 5 6 5 3 1 0 0 0 0 0 0 0 0 0 0 1 1 3 4 4 2 1 1 2 2 2 1 1 0
3 2 1 1 0 0 0 0 0 0 0 0 0 2 3 4 3 3 1 0 0 0 0 0 0 0 0 0 0 0 0 1 2 2 1 0 0 1 2 3 2 1 0
4 4 4 3 2 1 0 0 0 0 0 0 1 2 3 3 2 2 2 1 0 0 0 0 0 0 0 0 0 0 0 0 0 0 0 0 0 1 3 4 2 1 0
3 4 5 5 3 2 0 0 0 0 0 0 1 2 3 2 1 1 2 2 1 0 0 0 0 0 0 0 0 0 0 0 1 0 0 0 0 2 4 6 5 4 2
2 3 5 5 3 1 0 0 1 1 0 0 1 2 3 2 1 0 1 2 1 1 1 1 1 0 0 0 0 0 0 0 0 0 0 0 1 3 6 7 8 7 6
3 4 5 5 2 1 1 1 2 2 2 1 1 3 3 2 1 1 2 3 3 3 2 2 2 1 0 0 0 0 0 0 0 0 0 1 2 4 6 7 8 8 8
5 5 5 3 1 1 1 2 3 4 4 4 3 3 3 2 2 2 3 4 5 4 3 2 3 2 1 0 0 0 0 0 0 0 0 1 4 7 7 7 7 8 9
4 4 3 2 1 1 1 3 3 5 7 6 6 5 3 2 2 2 3 4 5 5 4 3 3 3 2 1 1 1 1 0 0 0 0 2 7 11 11 9 8 9 9
2 2 2 3 3 2 1 2 3 4 6 5 5 4 3 2 1 1 1 4 7 8 7 6 6 5 4 2 2 2 3 1 0 0 0 4 11 16 17 15 12 9 8
2 1 1 3 4 3 1 1 2 3 3 2 2 1 1 1 0 0 1 3 7 9 7 6 6 6 5 2 2 2 2 2 0 0 1 7 16 22 23 22 17 10 6
4 2 0 2 3 3 1 0 1 2 2 0 0 0 0 0 0 0 0 2 4 5 3 3 3 3 3 3 2 2 2 1 1 1 3 11 21 26 26 25 20 11 6
5 3 1 2 3 2 1 0 1 1 1 0 0 1 1 0 0 0 0 0 1 1 0 0 0 1 2 3 3 3 3 3 3 3 5 13 23 26 26 24 19 12 8
6 4 2 2 3 2 1 0 0 0 0 0 1 2 2 1 0 0 0 0 0 0 0 0 1 1 1 2 3 3 3 4 5 5 5 13 23 27 26 23 19 13 10
8 6 3 2 3 3 2 1 0 0 0 0 1 2 2 1 0 0 0 0 0 0 0 1 1 1 1 2 3 3 3 3 5 5 4 9 20 27 26 23 20 16 13
9 7 6 5 5 5 4 1 0 0 0 0 0 1 1 1 0 0 0 0 0 0 0 1 1 1 0 1 2 3 1 2 4 5 4 5 11 19 23 25 26 22 18
13 11 9 9 8 7 4 1 0 0 0 0 0 0 0 0 0 0 0 0 0 0 0 1 1 0 0 1 2 2 1 1 2 4 4 4 5 9 16 23 28 27 24
17 15 11 9 8 8 5 2 0 0 0 0 0 0 0 0 0 0 0 0 0 0 0 0 0 0 0 0 1 1 0 0 1 3 5 6 6 7 10 15 20 23 24
21 18 12 8 8 8 6 3 1 0 0 0 1 1 1 1 1 1 1 1 1 0 0 0 0 0 0 0 0 0 0 0 0 1 3 4 6 7 7 8 10 13 16
27 23 16 12 11 10 8 5 3 1 1 1 3 3 3 4 3 3 2 2 2 1 0 0 0 0 0 0 0 0 0 0 0 0 1 1 2 3 4 5 5 5 6
35 31 24 19 17 15 11 7 4 2 2 3 5 5 7 8 7 5 4 3 3 2 1 0 0 0 0 0 0 0 0 0 0 0 0 0 0 1 3 4 4 5 6
36 34 29 24 22 19 14 9 6 4 4 5 6 7 9 11 11 10 8 6 4 3 2 1 1 1 1 0 0 0 0 0 0 0 0 0 0 1 3 5 6 7 8
34 32 30 26 24 21 17 12 10 8 7 7 7 9 10 11 14 16 14 10 6 5 3 2 2 2 2 1 1 1 1 1 1 0 0 0 0 1 2 4 6 8 8
31 30 30 30 27 24 21 17 14 12 10 8 8 10 10 9 12 15 13 11 9 7 5 5 4 3 3 3 2 2 3 2 1 0 0 0 0 0 1 2 4 6 7
29 30 32 33 30 26 23 19 15 13 11 8 8 9 9 8 9 10 10 10 9 8 6 6 5 4 3 3 3 3 3 3 2 1 0 0 0 0 0 0 2 4 5
Wind_Speed
3 3 10 12 13 13 14 14 15 15 15 14 15 15 16 15 15 15 14 14 13 12 12 11 11 10 10 11 11 10 10 10 10 10 10 10 10 11 11 12 11 8 12
6 5 11 12 13 14 14 14 14 14 14 14 14 14 15 15 15 14 14 13 12 12 11 10 10 10 10 9 9 9 9 8 9 9 9 9 9 9 10 11 10 7 11
8 6 9 13 13 14 14 14 14 14 14 13 13 13 13 14 14 13 13 12 12 11 10 10 9 8 8 8 8 7 7 7 7 8 8 4 5 8 9 10 11 11 11
9 6 8 13 13 13 13 13 13 13 13 13 13 13 13 13 13 12 12 11 11 10 10 9 8 7 7 6 6 6 5 5 5 6 3 2 4 9 10 10 10 10 10
8 6 9 14 14 13 13 13 12 12 12 12 12 12 12 12 12 11 11 10 10 9 8 8 7 6 6 5 4 3 3 3 3 3 2 2 3 8 10 10 10 10 10
8 6 9 15 14 13 13 12 12 12 11 11 11 11 11 11 11 10 10 9 8 8 7 7 6 5 4 4 3 2 2 2 2 2 2 3 3 7 9 10 10 9 9
8 6 8 14 13 13 13 12 12 11 11 10 10 10 10 10 9 9 9 8 8 7 6 6 5 4 3 3 2 1 1 1 2 3 2 3 4 8 9 9 9 9 9
9 7 7 12 13 12 12 12 11 10 10 10 9 9 9 9 8 8 8 7 7 6 6 5 5 4 4 3 2 2 1 1 3 3 3 3 6 8 9 9 9 9 9
8 7 5 6 8 11 11 11 10 10 9 9 9 8 8 8 7 7 7 6 6 6 6 5 5 5 4 4 3 2 1 1 2 2 4 4 7 9 10 10 10 9 9
7 6 5 5 4 4 5 9 10 9 8 8 8 8 8 7 7 6 6 6 6 6 6 6 5 5 5 5 4 3 2 1 1 2 2 4 9 10 10 10 10 9 9
7 5 5 5 4 4 4 7 7 8 7 7 5 7 6 2 2 3 5 6 6 6 6 6 6 6 6 5 5 4 3 1 2 2 2 7 10 11 11 11 10 10 9
9 7 6 6 5 5 5 4 3 3 3 2 2 2 2 2 2 3 4 5 6 6 6 6 6 6 5 2 3 4 1 2 2 2 3 9 10 11 11 11 11 10 10
10 9 7 7 6 5 3 3 2 2 2 2 2 2 2 1 1 1 1 1 2 3 2 3 3 2 2 2 2 2 3 2 2 3 4 10 11 11 12 12 11 11 10
9 8 7 7 6 5 4 3 3 2 2 2 3 3 2 1 1 1 1 1 1 1 1 2 2 2 2 3 3 3 3 3 3 3 5 12 12 12 12 13 12 11 11
9 8 8 7 6 6 5 3 4 3 3 3 2 3 4 3 2 2 1 1 2 1 2 2 2 2 2 3 3 3 3 4 4 5 4 11 13 12 12 12 12 12 12
9 8 7 7 6 5 4 3 3 3 2 2 2 3 4 3 3 2 2 1 2 2 2 2 2 2 2 2 2 3 3 3 4 4 4 6 12 12 12 13 13 13 12
9 8 7 7 6 5 4 4 3 3 3 2 2 2 3 3 3 2 1 1 2 2 1 1 1 1 1 1 2 2 2 2 3 4 4 4 5 11 13 13 13 12 12
9 8 8 8 7 6 4 3 2 2 3 2 2 2 3 3 3 2 1 2 2 1 1 1 0 1 1 1 1 2 2 1 3 4 4 4 4 4 8 13 13 12 13
10 9 8 6 7 6 4 3 2 2 2 2 2 2 2 3 2 2 1 2 1 0 0 1 0 1 1 1 2 2 2 2 2 3 4 5 5 5 4 8 12 12 12
9 9 8 7 6 5 3 2 1 1 1 1 2 2 3 2 2 2 1 1 1 0 1 1 1 0 1 1 2 2 2 2 2 3 4 4 4 6 6 5 5 7 12
9 8 8 7 6 5 3 3 2 2 2 1 2 3 3 3 3 3 2 1 1 1 1 1 1 1 1 0 1 2 3 2 2 2 2 2 3 4 4 5 4 3 4
10 9 8 8 7 6 4 3 3 3 2 2 2 3 3 3 3 3 3 2 2 1 1 1 0 0 1 0 1 1 3 4 3 2 1 2 3 2 4 5 4 4 4
10 10 9 8 7 6 5 3 2 1 0 0 1 2 3 4 3 3 3 3 2 2 2 2 1 1 1 1 1 2 1 2 3 3 2 2 2 2 2 2 4 4 5
11 9 8 7 7 6 6 4 5 3 3 4 2 2 2 3 3 3 3 3 3 2 2 2 1 2 2 1 1 1 2 3 1 2 3 2 2 2 2 2 2 4 4
10 9 8 8 7 7 6 6 5 4 3 2 1 2 2 2 2 3 3 3 3 3 3 2 2 2 2 2 1 1 1 1 2 2 3 4 3 2 2 2 2 2 3
7 8 7 7 6 6 7 6 6 6 4 3 2 2 2 1 2 2 3 3 3 3 3 3 3 2 2 2 1 1 1 1 2 2 3 3 3 3 2 1 2 2 2
Wind_Direction
126 130 117 113 110 108 106 105 105 104 102 102 104 107 109 111 114 117 117 116 115 114 112 110 108 106 106 109 109 108 110 113 113 112 112 113 116 119 119 115 114 114 117
141 134 122 118 114 112 110 109 107 106 105 104 106 109 112 113 115 117 118 117 117 117 116 115 113 111 111 113 110 107 108 111 110 111 111 111 114 119 123 120 118 123 123
136 133 126 121 118 116 115 113 111 110 109 108 108 110 113 116 118 118 121 120 120 121 121 120 116 115 113 112 110 109 111 114 115 112 109 105 113 118 124 125 126 127 127
136 134 128 124 121 119 118 116 115 114 114 113 113 113 116 118 120 121 122 124 124 124 123 122 121 120 120 117 114 113 113 115 120 114 114 127 128 127 130 131 131 132 132
130 131 137 129 127 124 122 120 119 119 118 117 117 117 121 124 125 126 127 127 127 127 128 127 127 126 127 125 119 115 114 113 112 109 122 133 136 140 140 138 139 139 138
133 137 141 134 132 130 128 126 124 123 121 121 120 121 124 127 128 130 132 133 133 135 137 139 140 140 140 142 139 135 126 127 111 118 127 141 148 150 148 146 147 146 146
138 138 141 137 136 135 134 132 130 127 127 128 128 128 130 132 134 137 140 142 144 146 148 154 160 164 164 168 177 186 183 166 133 147 150 151 159 158 157 153 152 152 153
141 142 144 144 142 140 139 139 136 133 133 135 136 137 140 141 143 145 147 151 155 159 163 170 180 188 198 205 216 233 262 206 143 146 153 161 168 169 166 162 160 161 163
141 143 144 151 149 148 146 146 145 143 142 144 145 146 150 151 151 155 157 163 170 176 181 188 196 206 219 229 238 253 293 205 139 163 172 171 177 177 175 171 169 169 169
144 151 152 150 151 151 151 155 155 152 152 153 152 154 158 160 161 168 172 179 185 190 196 204 212 221 230 240 247 257 250 232 177 186 171 185 184 183 181 178 175 175 174
153 161 161 158 158 159 164 169 164 161 165 163 162 168 165 165 171 180 188 193 198 203 209 216 225 232 238 246 250 249 251 194 198 195 185 193 188 188 186 181 180 181 180
166 173 174 172 169 172 177 160 165 168 171 169 176 174 161 175 197 192 198 205 208 214 222 229 237 243 246 245 256 261 230 205 197 196 199 195 192 190 187 185 184 185 185
172 174 175 177 175 175 168 158 167 169 171 178 181 178 166 167 197 199 194 221 231 231 248 255 256 251 239 232 236 237 229 215 195 201 200 196 196 192 191 191 190 191 191
163 171 170 172 172 174 166 167 165 169 177 182 189 182 167 170 197 199 204 215 219 233 243 254 257 248 243 234 234 231 217 200 202 195 204 201 199 196 197 197 196 195 195
164 168 171 167 165 164 162 172 168 180 182 185 180 181 173 174 191 202 214 210 212 221 226 239 247 250 251 246 239 229 213 202 202 194 204 202 201 201 201 200 201 201 201
166 168 170 164 164 158 160 167 169 174 177 182 184 182 175 170 177 188 208 213 227 227 222 221 228 236 244 241 255 246 231 209 200 196 199 205 205 203 207 207 207 206 206
164 164 164 163 163 162 162 171 168 177 172 179 192 186 179 173 175 180 201 226 240 245 238 238 251 255 261 273 284 273 252 217 196 196 197 203 208 210 211 211 210 209 210
161 164 171 167 165 168 166 172 172 175 173 182 194 189 193 185 179 173 194 238 249 250 244 236 289 329 311 316 298 286 273 244 212 198 197 204 206 213 215 215 214 213 216
167 167 170 167 168 173 168 168 174 174 183 186 188 195 204 201 186 175 209 251 260 253 264 253 158 192 259 298 286 278 276 244 229 217 209 206 209 210 209 217 219 218 220
166 167 169 168 172 168 157 149 142 168 208 195 197 204 197 201 198 182 202 261 283 288 295 274 270 248 219 245 284 303 286 261 239 230 222 209 205 208 209 212 217 225 225
164 166 171 170 174 163 158 166 174 206 223 223 221 207 194 200 204 192 205 221 202 199 241 248 224 285 287 277 20 334 321 301 270 251 233 215 214 216 208 212 212 218 225
171 174 174 176 177 177 177 176 179 188 210 215 222 217 207 206 210 203 197 210 212 212 260 271 196 257 290 188 146 40 340 338 328 292 263 217 217 214 214 211 205 205 212
177 179 180 182 181 183 177 162 160 127 29 253 225 225 225 214 211 205 195 201 217 205 227 246 219 188 247 287 168 156 165 254 307 317 295 258 239 225 228 211 205 212 214
184 178 174 178 181 184 177 174 177 185 206 220 214 217 230 223 210 201 199 200 217 211 215 235 219 206 197 257 280 215 194 182 185 306 317 306 288 257 246 229 212 217 215
181 178 178 177 185 186 185 185 184 194 210 216 202 199 220 237 224 209 201 197 214 220 216 231 231 221 198 204 218 238 240 207 173 189 288 311 320 290 262 223 200 202 208
172 175 176 175 187 186 187 186 186 193 198 197 203 210 227 236 239 229 211 211 214 209 210 217 226 215 212 204 202 196 193 197 207 187 233 269 284 288 280 242 224 211 216